Location: Epancy
(48.9480°N, 0.1687°W)
Time: 13:55:48
(UTC+00:00)

Daily predictions for brighter satellites

Satellite Brightness Start Highest point End
(mag) Time Altitude Azimuth Time Altitude Azimuth Time Altitude Azimuth
STARLINK-1245 2.9 18:56:53 10° SW 18:59:58 63° SSE 19:03:03 10° ENE
YAOGAN 1 3.8 18:55:53 10° S 19:00:04 47° W 19:04:16 10° NNW
STARLINK-1238 2.9 18:57:17 10° SW 19:00:22 63° SSE 19:03:30 10° ENE
STARLINK-1094 3.8 18:56:38 10° WNW 19:00:41 71° SSW 19:04:42 10° SE
Cosmos 371 Rocket 4.4 18:56:05 10° NNW 19:00:44 48° WSW 19:05:22 10° S
Cosmos 2297 3.8 18:55:10 10° NNW 19:00:49 64° ENE 19:06:28 10° SE
STARLINK-1269 4.0 18:56:56 10° SW 19:00:49 45° SE 19:04:44 10° ENE
STARLINK-1205 2.9 18:58:12 10° SW 19:01:17 64° SSE 19:04:23 10° ENE
BREEZE-M DEB (TANK) 4.4 18:50:47 10° W 19:01:30 83° N 19:05:01 10° E
STARLINK-1204 2.9 18:58:41 10° SW 19:01:46 65° SSE 19:04:52 10° ENE
Cosmos 1455 Rocket 3.2 18:58:01 10° S 19:02:12 50° E 19:06:27 10° NNE
STARLINK-1111 4.0 18:58:36 10° WNW 19:02:42 57° NNE 19:06:48 10° E
STARLINK-1117 3.8 19:01:30 10° WNW 19:05:31 67° SSW 19:09:32 10° SE
STARLINK-1200 3.9 19:01:41 10° SW 19:05:37 49° SE 19:09:34 10° ENE
Cosmos 1386 Rocket 4.4 18:59:48 10° N 19:05:55 84° E 19:11:55 10° S
S3M 4.1 18:59:47 10° S 19:06:09 78° E 19:12:34 10° NNE
Cosmos 2237 Rocket 2.3 19:00:51 10° SSW 19:06:29 85° WNW 19:12:10 10° NNE
STARLINK-1073 4.0 19:03:36 10° WNW 19:07:42 59° NNE 19:11:48 10° E
Cosmos 1892 Rocket 3.7 19:03:36 10° N 19:08:06 84° W 19:12:35 10° S
CZ-2C R/B 4.0 19:05:21 10° NE 19:08:36 17° E 19:11:50 10° SE
Cosmos 1626 Rocket 4.1 19:04:42 10° N 19:08:49 37° ENE 19:12:53 10° SE
NOSS 2-1 (C) 4.1 19:06:14 10° WSW 19:09:32 48° NW 19:13:15 10° NE
STARLINK-1078 3.9 19:05:56 10° WNW 19:09:58 63° SSW 19:13:57 10° SE
STARLINK-1192 3.8 19:06:23 10° SW 19:10:22 52° SSE 19:14:21 10° ENE
Cosmos 1805 3.4 19:06:28 10° S 19:10:23 83° W 19:14:19 10° N
Cosmos 2278 Rocket 3.8 19:06:30 10° NW 19:11:42 38° WSW 19:16:53 10° S
Meteor 2-5 Rocket 4.1 19:06:46 10° NNW 19:12:26 73° W 19:17:58 10° S
STARLINK-1121 3.9 19:08:34 10° WNW 19:12:41 61° NNE 19:16:39 11° E
NOSS 2-1 (D) 4.3 19:10:30 10° WSW 19:13:45 44° NW 19:17:27 10° NNE
STARLINK-1108 4.0 19:10:49 10° WNW 19:14:48 59° SSW 19:18:48 10° SE
STARLINK-1244 3.7 19:11:16 10° SW 19:15:16 56° SSE 19:19:17 10° ENE
ARGOS 3.2 19:11:16 10° SSE 19:16:34 61° ENE 19:21:54 10° N
Cosmos 1602 Rocket 4.2 19:12:40 10° N 19:16:49 36° ENE 19:20:55 10° SE
STARLINK-1106 3.9 19:13:32 10° WNW 19:17:39 63° NNE 19:21:25 12° E
STARLINK-1071 4.1 19:15:28 10° WNW 19:19:27 55° SSW 19:23:25 10° SE
STARLINK-1138 3.7 19:15:50 10° SW 19:19:51 60° SSE 19:23:54 10° ENE
Okean 1-7 Rocket 3.8 19:15:44 10° NNW 19:20:08 74° W 19:24:30 10° S
STARLINK-1234 2.9 19:17:50 10° WSW 19:20:48 76° NNW 19:23:46 10° ENE
Cosmos 494 Rocket 4.0 19:17:19 10° SSW 19:22:28 87° ESE 19:27:42 10° NNE
STARLINK-1112 3.8 19:18:33 10° WNW 19:22:41 65° NNE 19:26:14 14° E
Meteor 1-24 Rocket 3.8 19:18:08 10° NNW 19:23:42 78° W 19:29:04 10° S
USA 186 1.8 19:20:20 10° SSE 19:23:44 71° ENE 19:27:06 10° N
STARLINK-1110 4.2 19:19:57 10° WNW 19:23:54 51° SSW 19:27:43 11° SE
STARLINK-1143 3.6 19:20:42 10° SW 19:24:44 64° SSE 19:28:48 10° ENE
STARLINK-1124 4.2 19:21:19 10° WNW 19:25:21 51° SW 19:29:13 11° SE
STARLINK-1128 3.8 19:23:31 10° WNW 19:27:40 68° NNE 19:31:01 15° E
CZ-2C R/B 2.9 19:23:56 10° SSE 19:28:57 79° ENE 19:33:48 10° NNW
Cosmos 1544 Rocket 3.5 19:25:24 10° S 19:29:46 73° E 19:34:13 10° NNE
Cosmos 1470 3.0 19:28:06 10° SSE 19:31:48 46° E 19:35:33 10° NNE
STARLINK-1113 3.7 19:28:30 10° WNW 19:32:39 71° NNE 19:35:47 17° ESE
STARLINK-1241 3.5 19:29:01 10° SW 19:33:03 71° SSE 19:37:06 10° ENE
STARLINK-1122 4.4 19:29:25 10° WNW 19:33:19 45° SW 19:36:48 12° SE
Cosmos 883 Rocket 4.5 19:28:59 10° S 19:35:10 79° E 19:41:29 10° NNE
CZ-4 R/B 4.4 19:33:08 10° SW 19:35:25 15° W 19:37:44 10° NW
SPOT 3 Rocket 3.7 19:30:39 10° SE 19:35:44 56° ENE 19:40:51 10° N
STARLINK-1119 3.7 19:33:29 10° WNW 19:37:38 74° NNE 19:40:34 19° ESE
MOS 1 4.3 19:31:59 10° SSE 19:37:39 87° WSW 19:43:21 10° NNW
STARLINK-1239 3.5 19:33:56 10° WSW 19:37:58 76° SSE 19:41:56 11° ENE
STARLINK-1126 4.5 19:34:25 10° WNW 19:38:16 42° SW 19:41:36 13° SSE
Cosmos 2369 Rocket 2.7 19:33:40 10° NNW 19:39:08 44° NE 19:43:14 17° ESE
SJ-6B 2.9 19:37:46 10° SSE 19:41:51 86° ENE 19:46:00 10° NNW
STARLINK-1114 3.6 19:38:30 10° WNW 19:42:40 78° NNE 19:45:24 21° ESE
STARLINK-1240 3.5 19:38:38 10° WSW 19:42:41 80° SSE 19:46:29 12° ENE
Cosmos 1733 4.0 19:39:03 10° SSW 19:42:44 53° WNW 19:46:28 10° N
Cosmos 1726 3.4 19:42:57 20° ESE 19:43:40 22° E 19:46:35 10° NE
Aureole 2 Rocket 3.3 19:41:14 10° N 19:44:28 33° ENE 19:45:57 23° ESE
Ariane Rocket 3.7 19:39:57 10° S 19:44:57 57° W 19:49:58 10° NNW
Cosmos 1758 Rocket 4.3 19:41:40 10° N 19:45:40 33° ENE 19:47:54 20° ESE
Cosmos 1758 3.3 19:41:44 10° S 19:45:46 62° E 19:49:49 10° NNE
STARLINK-1216 3.5 19:43:22 10° WSW 19:47:26 84° SSE 19:51:02 13° ENE
STARLINK-1130 (DARKSAT) 3.6 19:43:28 10° WNW 19:47:38 81° NNE 19:50:10 23° ESE
CZ-2C R/B 3.9 19:44:24 10° NNE 19:49:06 54° E 19:53:42 10° S
ATLAS CENTAUR R/B 4.3 19:48:18 10° NNW 19:49:30 11° NNW 19:50:41 10° N
STARLINK-1209 3.5 19:47:55 10° W 19:50:47 50° NNW 19:52:50 17° ENE
STARLINK-1237 3.5 19:48:08 10° WSW 19:52:12 89° SSE 19:55:38 14° ENE
STARLINK-1084 3.6 19:48:26 10° WNW 19:52:36 85° NNE 19:54:56 25° ESE
STARLINK-1228 3.5 19:50:08 10° W 19:52:57 48° NNW 19:54:51 18° NE
Cosmos 2184 Rocket 4.2 19:48:38 10° N 19:54:48 50° ENE 19:59:37 16° SE
Terra 4.0 19:54:39 10° NE 19:55:01 10° NE 19:55:24 10° NE
IRIDIUM 106 4.4 19:49:56 10° N 19:55:07 60° E 20:00:12 10° SSE
SL-14 R/B 4.4 19:52:51 10° NNW 19:56:45 46° W 20:00:36 10° SSW
STARLINK-1202 3.5 19:52:52 10° WSW 19:56:57 87° NNW 20:00:11 16° ENE
STARLINK-1098 3.6 19:53:25 10° WNW 19:57:35 89° NNE 19:59:43 28° ESE
Spot 2 Rocket 4.4 19:55:41 22° ESE 19:57:59 31° ENE 20:02:26 10° N
Cosmos 1943 Rocket 2.1 19:55:08 10° NNW 20:00:42 76° ENE 20:04:35 20° SE
ERBS 4.3 19:58:26 10° WNW 20:01:22 26° NNW 20:04:18 10° NE
Meteor 1-21 Rocket 4.1 19:55:48 10° N 20:01:23 71° ENE 20:06:08 14° SSE
STARLINK-1123 3.6 19:58:24 10° WNW 20:02:34 86° SSW 20:04:30 31° ESE
Cosmos 1943 4.0 20:01:04 19° SE 20:03:49 27° ESE 20:08:31 10° NE
STARLINK-1246 3.6 20:00:04 10° WSW 20:04:10 81° NNW 20:07:11 18° ENE
STARLINK-67 3.8 20:01:49 10° W 20:04:14 35° N 20:05:15 24° NE
SL-8 R/B 3.6 20:00:17 10° W 20:05:04 82° S 20:07:34 28° ESE
Meteor 2-10 4.4 20:01:08 10° SSE 20:06:12 46° E 20:11:30 10° NNE
STARLINK-1201 3.6 20:03:38 10° W 20:06:52 55° NNW 20:08:42 23° NE
STARLINK-1097 3.6 20:03:22 10° WNW 20:07:32 82° SSW 20:09:16 34° ESE
Cosmos 1626 3.8 20:04:57 10° NNW 20:08:19 33° W 20:11:40 10° SSW
Resurs 1-3 3.5 20:05:32 17° SSE 20:08:51 84° ENE 20:13:16 10° NNW
ATLAS 2AS CENTAUR R/B 3.5 20:02:27 10° NW 20:09:52 45° NNE 20:14:22 22° E
STARLINK-1224 3.7 20:07:12 10° WSW 20:11:17 76° NNW 20:13:57 21° ENE
STARLINK-1099 3.6 20:08:22 10° WNW 20:12:31 78° SSW 20:14:04 37° SE
STARLINK-1203 3.7 20:08:36 10° WSW 20:12:35 71° NNW 20:15:06 21° ENE
Cosmos 2315 Rocket 4.3 20:07:42 10° SSW 20:14:00 70° WNW 20:20:23 10° N
H-2A R/B 3.4 20:10:42 10° SSW 20:15:38 39° W 20:20:30 10° NNW
Cosmos 2154 Rocket 4.3 20:09:44 10° N 20:15:53 48° ENE 20:18:59 27° SE
STARLINK-1225 3.7 20:11:49 10° WSW 20:15:53 73° NNW 20:18:23 22° ENE
USA 234 3.2 20:09:54 10° ENE 20:16:26 68° SE 20:22:56 10° SW
STARLINK-1104 3.6 20:13:21 10° WNW 20:17:29 73° SSW 20:18:51 40° SE
Aureole 3 3.6 20:13:33 10° S 20:17:38 88° E 20:22:56 10° N
SL-08 RB Rocket 4.4 20:13:18 10° S 20:17:42 52° W 20:22:12 10° NNW
DMSP B5D2-2 4.0 20:13:26 10° NNE 20:18:39 72° ESE 20:23:52 10° S
Resurs 01 Rocket 1.5 20:16:28 28° SSE 20:18:45 76° ENE 20:23:11 10° N
Meteor 2-15 Rocket 4.4 20:12:56 10° S 20:19:01 86° W 20:25:09 10° N
STARLINK-1233 3.8 20:16:51 10° W 20:19:54 47° NNW 20:21:02 31° NE
Cosmos 1328 4.2 20:16:10 10° N 20:19:59 41° ENE 20:20:25 40° E
STARLINK-1212 3.8 20:17:19 10° W 20:20:21 46° NNW 20:21:27 31° NE
STARLINK-1230 3.8 20:16:34 10° WSW 20:20:38 70° NNW 20:22:57 24° ENE
STARLINK-1105 3.8 20:17:45 10° W 20:20:48 46° NNW 20:21:54 31° NE
SL-16 R/B 2.7 20:15:26 10° SW 20:21:03 62° WNW 20:26:41 10° NNE
STARLINK-1206 3.8 20:18:15 10° W 20:21:17 46° NNW 20:22:19 32° NE
STARLINK-1247 3.8 20:18:41 10° W 20:21:44 46° NNW 20:22:44 32° NE
STARLINK-1227 3.8 20:19:07 10° W 20:22:10 46° NNW 20:23:12 32° NE
Abrixas rocket 3.8 20:19:28 10° SW 20:20:45 20° SSW 20:20:45 20° SSW
STARLINK-1144 3.7 20:18:20 10° WNW 20:22:28 69° SSW 20:23:38 44° SE
STARLINK-1218 3.8 20:19:37 10° W 20:22:38 45° NNW 20:23:36 32° NE
Cosmos 2228 3.4 20:22:39 40° ESE 20:22:56 40° E 20:26:59 10° NNE
STARLINK-1226 3.8 20:20:03 10° W 20:23:05 45° NNW 20:24:03 33° NE
STARLINK-1254 3.8 20:20:29 10° W 20:23:31 45° NNW 20:24:29 33° NE
STARLINK-1215 3.8 20:20:58 10° W 20:23:59 45° NNW 20:24:54 33° NE
STARLINK-1231 3.8 20:21:24 10° W 20:24:25 45° NNW 20:25:20 33° NE
STARLINK-1232 3.8 20:22:19 10° W 20:25:20 45° NNW 20:26:12 34° NNE
STARLINK-1243 3.8 20:21:25 10° WSW 20:25:29 67° NNW 20:27:36 27° ENE
STARLINK-1217 3.8 20:22:47 10° W 20:25:48 44° NNW 20:26:38 34° NNE
STARLINK-1208 3.8 20:23:11 10° W 20:26:13 45° NNW 20:27:05 34° NNE
STARLINK-1229 3.8 20:23:40 10° W 20:26:41 44° NNW 20:27:30 35° NNE
Cosmos 1953 2.2 20:23:07 12° S 20:26:47 86° WNW 20:30:47 10° N
STARLINK-1271 3.8 20:24:07 10° W 20:27:08 44° NNW 20:27:56 35° NNE
STARLINK-1103 3.7 20:23:19 10° WNW 20:27:26 64° SSW 20:28:25 47° SSE
STARLINK-1270 3.8 20:24:36 10° W 20:27:36 44° NNW 20:28:23 35° NNE
STARLINK-1154 3.8 20:25:03 10° W 20:28:03 44° NNW 20:28:48 36° NNE
STARLINK-1197 3.9 20:25:57 10° W 20:28:58 43° NNW 20:29:40 36° NNE
STARLINK-1189 3.9 20:26:24 10° W 20:29:25 43° NNW 20:30:07 36° NNE
STARLINK-1236 3.9 20:26:13 10° W 20:30:17 64° NNW 20:32:12 29° NE
STARLINK-1187 3.9 20:27:17 10° W 20:30:18 42° N 20:31:00 35° NNE
STARLINK-1198 3.9 20:27:18 10° W 20:30:18 43° NNW 20:30:58 37° NNE
STARLINK-1188 3.9 20:27:19 10° W 20:30:19 43° NNW 20:30:59 37° NNE
Cosmos 1992 Rocket 4.0 20:25:14 10° NNW 20:30:29 81° WSW 20:33:07 30° SSE
STARLINK-1235 4.0 20:28:00 10° W 20:31:02 41° N 20:31:43 35° NNE
STARLINK-1199 3.9 20:29:15 10° W 20:32:16 43° N 20:32:54 37° NNE
STARLINK-1101 3.8 20:28:18 10° WNW 20:32:23 60° SSW 20:33:11 49° SSE
STARLINK-1191 3.9 20:29:42 10° W 20:32:44 43° N 20:33:20 37° NNE
STARLINK-1210 3.9 20:30:10 10° W 20:33:11 43° N 20:33:46 38° NNE
STARLINK-1221 3.9 20:30:36 10° W 20:33:38 43° N 20:34:11 38° NNE
Nadezhda 1 Rocket 4.1 20:29:47 23° SSE 20:33:49 57° E 20:40:03 10° NNE
STARLINK-1219 3.9 20:31:04 10° W 20:34:06 42° N 20:34:39 38° NNE
STARLINK-1222 3.9 20:31:32 10° W 20:34:33 42° N 20:35:04 38° NNE
STARLINK-1211 3.9 20:31:59 10° W 20:35:00 42° N 20:35:30 38° NNE
STARLINK-1214 3.9 20:32:26 10° W 20:35:27 42° N 20:35:56 39° NNE
ISS -3.7 20:32:26 10° WNW 20:35:39 66° SW 20:35:39 66° SW
STARLINK-1245 3.9 20:32:54 10° W 20:35:54 42° N 20:36:20 39° NNE
STARLINK-1238 3.9 20:33:18 10° W 20:36:19 42° N 20:36:46 39° NNE
STARLINK-1205 3.9 20:34:14 10° W 20:37:14 41° N 20:37:37 39° NNE
STARLINK-1102 3.8 20:33:16 10° WNW 20:37:20 56° SSW 20:37:58 50° S
STARLINK-1204 3.9 20:34:43 10° W 20:37:42 41° N 20:38:03 39° N
STARLINK-1269 4.0 20:36:09 10° W 20:40:13 60° NNW 20:41:43 35° NE
Cosmos 2058 Rocket 4.1 20:42:37 32° ENE 20:42:37 32° ENE 20:45:46 10° NNE
MetOp-B 4.0 20:40:10 39° SSE 20:42:14 78° ENE 20:47:38 10° NNW
Cosmos 2084 Rocket 4.1 20:37:56 10° NW 20:42:17 52° SW 20:43:30 39° S
STARLINK-1111 3.9 20:38:17 10° WNW 20:42:19 52° SW 20:42:45 50° S
Cosmos 1603 3.6 20:37:13 10° SSW 20:42:47 65° ESE 20:48:21 10° NNE
Cosmos 1703 3.1 20:39:40 10° N 20:43:38 77° E 20:43:49 75° ESE
Cosmos 2251 Rocket 3.5 20:38:23 10° SSW 20:43:44 89° ESE 20:49:10 10° NNE
SPOT 5 3.8 20:44:26 28° ENE 20:44:26 28° ENE 20:47:51 10° N
Meteor 1-16 Rocket 4.0 20:40:19 18° S 20:44:18 81° E 20:49:48 10° NNE
STARLINK-1200 4.1 20:41:00 10° W 20:45:03 58° NNW 20:46:21 38° NE
CZ-4C R/B 4.5 20:40:52 10° NW 20:45:39 23° N 20:51:05 10° NE
STARLINK-1073 4.0 20:43:17 10° WNW 20:47:17 49° SW 20:47:33 48° SSW
Cosmos 2074 Rocket 4.2 20:42:11 10° NNW 20:48:25 70° W 20:53:00 19° S
IGS 5A 3.7 20:49:02 51° ENE 20:49:02 51° ENE 20:52:52 10° N
ERS-1 Rocket 3.4 20:48:38 41° E 20:49:00 42° ENE 20:53:44 10° N
CZ-2C R/B 2.6 20:44:20 10° NNE 20:49:31 76° WNW 20:54:41 10° SSW
STARLINK-1192 4.1 20:45:48 10° W 20:49:49 56° NNW 20:50:56 41° NE
Landsat 7 3.8 20:49:40 55° E 20:50:09 58° ENE 20:54:51 10° N
STARLINK-1121 4.2 20:48:15 10° WNW 20:52:14 45° SW 20:52:19 45° SSW
STARLINK-1244 4.2 20:50:45 10° W 20:54:46 54° NNW 20:55:40 44° NNE
STARLINK-1106 4.3 20:53:14 10° WNW 20:57:04 42° SW 20:57:04 42° SW
STARLINK-1138 4.2 20:55:19 10° W 20:59:20 53° NNW 21:00:03 46° NNE
Cosmos 1656 Rocket 3.6 20:55:10 10° NNW 21:00:54 83° ENE 21:02:03 58° SE
MOS 1 Rocket 4.1 20:56:33 10° N 21:01:40 58° WNW 21:06:57 10° SSW
Cosmos 1610 Rocket 4.5 20:56:32 10° N 21:02:47 81° W 21:05:25 37° S
Meteor 1-11 4.2 20:57:07 10° NNW 21:02:58 87° ENE 21:04:29 52° SSE
Cosmos 1437 4.4 21:01:21 10° NNW 21:03:36 30° WNW 21:03:36 30° WNW
STARLINK-1143 4.2 21:00:15 10° W 21:04:15 52° N 21:04:46 48° NNE
Aureole 1 Rocket 4.4 21:01:50 38° SSE 21:04:34 54° ESE 21:10:58 10° NNE
CARTOSAT-1 4.3 21:07:29 42° NE 21:07:29 42° NE 21:10:52 10° N
Cosmos 1726 Rocket 3.6 21:10:43 75° WSW 21:10:54 76° WNW 21:15:21 10° N
STARLINK-1241 4.3 21:08:30 10° W 21:12:28 50° N 21:12:34 50° N
COSMOS 2455 3.4 21:08:26 10° NNW 21:14:12 44° NE 21:15:09 41° ENE
STARLINK-1239 4.3 21:13:31 10° W 21:17:21 49° NNW 21:17:21 49° NNW
Cosmos 1726 3.9 21:17:22 24° WSW 21:18:43 31° WNW 21:22:06 10° N
Cosmos 1461 4.0 21:17:10 10° NNW 21:20:56 39° NNE 21:20:56 39° NNE
Cosmos 2341 Rocket 3.9 21:15:14 10° N 21:21:38 80° E 21:22:44 63° SSE
STARLINK-1240 4.5 21:18:17 10° W 21:21:54 47° NNW 21:21:54 47° NNW
Cosmos 2369 Rocket 3.4 21:17:56 10° NW 21:23:05 36° WSW 21:25:03 28° SW
Cosmos 1908 4.3 21:24:02 44° NNW 21:24:02 44° NNW 21:27:03 10° N
NOSS 3-4 (A) 3.7 21:21:40 10° NW 21:28:37 84° NE 21:30:09 60° SE
NOSS 3-4 (C) 3.7 21:21:46 10° NW 21:28:43 83° NE 21:30:14 60° SE
Terra 2.4 21:32:46 49° NNE 21:32:46 49° NNE 21:36:30 10° N
Spot 2 Rocket 4.4 21:35:52 39° SW 21:36:49 43° W 21:41:41 10° NNW
NOSS 3-3 (A) 4.2 21:32:39 10° SW 21:38:37 70° NW 21:45:25 10° NE
NOSS 3-3 (C) 4.1 21:32:45 10° SW 21:38:42 71° NW 21:45:31 10° NE
SPOT 1/Viking Rocket 3.8 21:41:28 59° WSW 21:41:38 59° W 21:46:49 10° NNW
Cosmos 1943 Rocket 4.2 21:40:01 10° WNW 21:43:48 19° W 21:46:08 15° SW
Cosmos 1943 3.7 21:42:19 12° SW 21:47:31 57° WNW 21:53:08 10° NNE
Cosmos 2218 Rocket 3.9 21:42:30 10° N 21:48:36 79° ENE 21:48:36 79° ENE
Resurs 01 Rocket 4.3 21:54:01 11° WSW 21:55:47 13° W 21:57:57 10° WNW
APEX 4.5 21:49:27 10° NNW 21:56:20 69° WSW 21:56:22 69° WSW
USA 234 3.7 21:53:01 10° ENE 21:59:24 58° NNW 22:05:47 10° W
Cosmos 2181 Rocket 3.9 22:00:17 85° NNW 22:00:17 85° NNW 22:06:25 10° N
ATLAS 2AS CENTAUR R/B 2.8 21:53:45 10° NW 22:01:18 66° WSW 22:01:48 64° SW
Cosmos 407 Rocket 4.3 22:06:47 47° N 22:06:47 47° N 22:10:34 10° NNE
Cosmos 1697 Rocket 4.2 22:05:38 10° NNW 22:10:12 26° NE 22:10:12 26° NE
Mayak 1.3 22:14:43 10° NNE 22:15:31 15° NNE 22:15:31 15° NNE
SL-8 Rocket 4.4 22:15:27 10° NNW 22:21:33 53° W 22:21:40 53° W
Cosmos 2366 rocket 4.4 22:23:25 10° NNW 22:29:00 56° WNW 22:29:00 56° WNW
Cosmos 1980 Rocket 3.9 22:31:15 10° N 22:35:28 24° NE 22:35:28 24° NE
CZ-4C R/B 4.0 22:30:12 10° NW 22:36:13 34° NNE 22:38:44 28° ENE
COSMOS 2455 4.1 22:54:30 10° NW 22:58:18 34° WNW 22:58:18 34° WNW
Terra 4.3 23:11:38 16° WNW 23:11:38 16° WNW 23:13:21 10° NW
ATLAS CENTAUR R/B 4.4 23:07:28 10° NNW 23:08:02 13° NNW 23:08:02 13° NNW
ATLAS 5 CENTAUR R/B 4.4 23:20:05 14° NNE 23:20:05 14° NNE 23:20:53 10° NE
USA 234 4.2 23:35:43 10° ENE 23:41:50 44° N 23:47:57 10° WNW
SL-16 R/B 4.4 23:52:44 20° ENE 23:53:43 21° NE 23:58:11 10° N
Mayak 1.8 23:51:33 10° NNW 23:52:06 12° NNW 23:52:06 12° NNW
